Location: Burleson Alternative School
(32.5290°N, 97.3406°W)
Time: 03:09:13
(UTC+00:00)

Courier 1B Rocket - Pass Details

Date: 19 November 2024
Orbit: 920 x 1201 km, 28.2° (Epoch: 03 December)

Event Time Altitude Azimuth Distance (km) Brightness Sun altitude
Rises 00:19:27 0° 272° (W) 3,752 9.7 -11.3°
Reaches altitude 10° 00:22:25 10° 264° (W) 2,756 8.8 -11.9°
Maximum altitude 00:28:22 36° 200° (SSW) 1,474 6.3 -13.1°
Drops below altitude 10° 00:34:02 10° 135° (SE) 2,623 7.0 -14.3°
Enters shadow 00:36:00 - 129° (SE) 3,272 7.4 -14.7°
